IZ3MEZ-13 Weather Reports


time (UTC)temp
F
wind
direction
speed
knots
gust
knots
rain 1hr
in
rain 24hr
in
rain mn
in
humidity
%
barometer
mb
20260506215522 57 0.0 0.0 0.00 0.09 0.09 93 1012.4
20260506214519 57 0.0 0.0 0.00 0.09 0.09 93 1012.3
20260506213524 57 0.0 0.0 0.00 0.09 0.09 92 1012.3
20260506212520 58 0.0 0.0 0.00 0.09 0.09 92 1012.3
20260506211521 58 0.0 0.0 0.00 0.09 0.09 93 1012.3
20260506210528 58 0.0 0.0 0.00 0.09 0.09 92 1012.2
20260506205516 58 0.0 0.0 0.00 0.09 0.09 92 1012.1
20260506204523 58 0.0 0.0 0.00 0.09 0.09 92 1012.1
20260506203520 58 0.0 0.0 0.00 0.09 0.09 91 1012.2
20260506202518 58 0.0 0.0 0.00 0.09 0.09 91 1012.1
20260506201526 59 0.0 0.0 0.00 0.09 0.09 91 1012.0
20260506200524 59 0.0 0.0 0.00 0.09 0.09 90 1011.8
20260506195520 60 0.0 0.0 0.00 0.09 0.09 90 1011.7
20260506194517 60 0.0 0.0 0.00 0.09 0.09 90 1011.5
20260506193518 61 16 0.0 1.7 0.00 0.09 0.09 90 1011.6
20260506192522 61 0.0 0.0 0.00 0.09 0.09 90 1011.6
20260506191526 61 7 0.0 1.7 0.00 0.09 0.09 89 1011.3
20260506190518 62 27 0.0 1.7 0.00 0.09 0.09 89 1011.4
20260506185516 62 13 0.9 2.6 0.00 0.09 0.09 89 1011.3
20260506184517 62 19 0.0 0.9 0.00 0.09 0.09 89 1011.2
20260506183518 62 319 0.0 0.9 0.00 0.09 0.09 88 1010.9
20260506182524 62 21 1.7 3.5 0.00 0.09 0.09 88 1011.0
20260506181521 63 18 0.9 2.6 0.00 0.09 0.09 88 1010.7
20260506180520 63 18 1.7 2.6 0.00 0.09 0.09 88 1010.8
20260506175526 63 0.0 0.0 0.00 0.09 0.09 88 1010.7
20260506174517 63 12 0.9 1.7 0.00 0.09 0.09 87 1010.6
20260506173522 63 321 0.0 0.9 0.00 0.09 0.09 87 1010.6
20260506172520 63 3 0.9 2.6 0.00 0.09 0.09 87 1010.7
20260506171517 63 306 0.0 0.9 0.00 0.09 0.09 86 1010.6
20260506170518 64 0.0 0.0 0.00 0.09 0.09 86 1010.6
20260506165526 64 306 0.0 1.7 0.00 0.09 0.09 85 1010.6
20260506164519 65 286 0.0 0.9 0.00 0.09 0.09 84 1010.6
20260506163526 65 0.0 0.0 0.00 0.09 0.09 84 1010.5
20260506162530 66 251 0.0 1.7 0.00 0.09 0.09 83 1010.7
20260506161521 66 298 0.0 0.9 0.00 0.09 0.09 81 1010.8
20260506160518 68 251 0.0 0.9 0.00 0.09 0.09 81 1010.7
20260506155518 69 0.0 0.0 0.00 0.09 0.09 82 1010.8
20260506154519 68 252 0.0 1.7 0.00 0.09 0.09 83 1010.6
20260506153528 67 319 0.9 1.7 0.00 0.09 0.09 84 1010.7
20260506153024 66 287 0.9 1.7 0.00 0.09 0.09 84 1010.6
20260506152020 66 203 0.0 0.9 0.00 0.09 0.09 84 1010.7
20260506151021 66 283 0.0 0.9 0.00 0.09 0.09 85 1010.6
20260506142518 65 350 0.0 1.7 0.00 0.09 0.09 88 1010.8
20260506141519 65 4 0.0 2.6 0.01 0.09 0.09 89 1010.8
20260506140519 65 351 0.9 2.6 0.04 0.09 0.09 89 1011.0
20260506135020 64 335 0.0 0.9 0.07 0.09 0.09 89 1011.0
20260506134017 63 333 0.0 1.7 0.07 0.09 0.09 89 1011.1
20260506133518 63 326 0.0 2.6 0.07 0.09 0.09 89 1011.4
20260506132517 63 297 0.0 0.9 0.07 0.09 0.09 88 1011.4
20260506132019 62 297 0.0 1.7 0.06 0.09 0.09 87 1011.5
20260506131018 63 238 0.9 2.6 0.04 0.07 0.07 86 1011.5
20260506130518 63 0.0 0.0 0.03 0.06 0.06 86 1011.5
20260506130020 64 307 0.0 0.9 0.01 0.04 0.04 85 1011.6
20260506125523 64 307 0.0 0.9 0.00 0.03 0.03 85 1011.7
20260506125022 65 293 0.0 3.5 0.00 0.03 0.03 84 1011.5
20260506124521 66 346 0.9 1.7 0.00 0.03 0.03 84 1011.5
20260506123022 65 358 0.9 2.6 0.00 0.03 0.03 83 1011.3
20260506122030 66 314 0.9 1.7 0.00 0.03 0.03 82 1011.5
20260506121018 67 297 0.0 1.7 0.00 0.03 0.03 80 1011.6
20260506120019 68 7 0.9 1.7 0.00 0.03 0.03 78 1011.8
20260506115017 69 339 0.9 2.6 0.00 0.03 0.03 79 1011.9
20260506114018 70 310 0.9 1.7 0.00 0.03 0.03 79 1012.0
20260506113023 70 322 0.0 1.7 0.00 0.03 0.03 80 1012.1
20260506112528 70 3 0.9 1.7 0.00 0.03 0.03 81 1012.1
20260506112016 69 357 0.9 2.6 0.00 0.03 0.03 84 1012.3
20260506111519 68 357 0.9 3.5 0.00 0.03 0.03 86 1012.1
20260506111021 65 316 0.0 0.9 0.00 0.03 0.03 86 1012.2
20260506110018 64 319 0.9 1.7 0.00 0.03 0.03 86 1012.4
20260506105531 64 0.0 0.0 0.00 0.03 0.03 86 1012.5
20260506104017 64 300 0.0 0.9 0.00 0.03 0.03 87 1012.3
20260506103025 64 276 0.0 0.9 0.01 0.03 0.03 87 1012.6
20260506102018 63 277 0.0 1.7 0.02 0.03 0.03 87 1012.7
20260506101021 63 282 0.0 1.7 0.02 0.03 0.03 87 1012.6
20260506100017 63 306 0.0 1.7 0.02 0.03 0.03 87 1012.5
20260506095020 63 280 0.0 2.6 0.01 0.03 0.02 86 1012.7
20260506094021 63 0.0 0.0 0.01 0.03 0.02 85 1012.6
20260506093528 63 248 0.0 0.9 0.01 0.02 0.02 85 1012.7
20260506092518 64 248 0.0 0.9 0.00 0.02 0.02 84 1012.8
20260506091519 64 0.0 0.0 0.00 0.02 0.01 83 1012.6
20260506091025 65 248 0.0 1.7 0.00 0.03 0.01 83 1012.7
20260506085022 66 248 0.9 1.7 0.00 0.04 0.01 83 1012.4
20260506084021 66 248 0.0 0.9 0.00 0.04 0.01 86 1012.3
20260506083017 65 249 0.0 0.9 0.00 0.04 0.01 87 1012.2
20260506082522 64 249 0.0 0.9 0.00 0.04 0.01 87 1012.2
20260506081531 64 249 0.0 0.9 0.00 0.04 0.01 88 1012.2
20260506080518 64 249 0.0 0.9 0.00 0.04 0.01 90 1012.2
20260506073522 62 257 0.0 0.9 0.00 0.04 0.01 93 1012.5
20260506072525 61 0.0 0.0 0.00 0.04 0.01 93 1012.4
20260506071517 60 332 0.0 0.9 0.00 0.04 0.01 93 1012.6
20260506070520 60 332 0.0 0.9 0.00 0.04 0.01 94 1012.5
20260506062517 58 0.0 0.0 0.00 0.04 0.01 94 1012.4
20260506061518 58 0.0 0.0 0.00 0.04 0.01 94 1012.4
20260506060517 57 0.0 0.0 0.00 0.04 0.01 94 1012.4
20260506050517 56 293 0.0 1.7 0.00 0.03 0.01 94 1012.9
20260506044522 56 24 0.0 0.9 0.01 0.03 0.01 94 1012.4
20260506043521 56 24 0.9 1.7 0.01 0.03 0.01 94 1012.3
20260506042517 56 347 0.0 0.9 0.01 0.03 0.01 94 1012.3
20260506041524 56 345 0.0 0.9 0.01 0.03 0.01 94 1012.4
20260506040529 55 0.0 0.0 0.00 0.03 0.00 94 1012.3
20260506035519 55 344 0.0 0.9 0.00 0.03 0.00 94 1012.2
20260506034520 55 274 0.0 0.9 0.00 0.02 0.00 94 1012.6
20260506033523 55 12 0.0 0.9 0.00 0.02 0.00 94 1012.6
20260506032519 55 0.0 0.0 0.00 0.02 0.00 94 1012.8
20260506031524 55 0.0 0.0 0.00 0.02 0.00 94 1012.8
20260506030523 55 12 0.0 0.9 0.00 0.02 0.00 93 1012.8
20260506025519 55 0.0 0.0 0.00 0.02 0.00 94 1012.9
20260506024524 55 0.0 0.0 0.00 0.02 0.00 93 1013.0
20260506023519 55 13 0.0 0.9 0.00 0.02 0.00 94 1013.1
20260506022522 55 13 0.0 0.9 0.00 0.02 0.00 94 1013.1
20260506021524 55 0.0 0.0 0.00 0.02 0.00 93 1013.1
20260506020519 55 336 0.0 0.9 0.00 0.02 0.00 93 1013.3
20260506015521 55 0.0 0.0 0.00 0.02 0.00 93 1013.3
20260506014522 55 13 0.0 0.9 0.00 0.02 0.00 93 1013.4
20260506013521 55 0.0 0.0 0.00 0.02 0.00 93 1013.5
20260506012522 55 0.0 0.0 0.00 0.02 0.00 93 1013.5
20260506011518 55 13 0.0 0.9 0.00 0.02 0.00 93 1013.4
20260506010517 55 0.0 0.0 0.00 0.02 0.00 93 1013.7
20260506005528 54 0.0 0.0 0.00 0.02 0.00 93 1013.7
20260506004518 54 0.0 0.0 0.00 0.02 0.00 92 1013.6
20260506003521 54 0.0 0.0 0.00 0.02 0.00 92 1013.7
20260506002520 54 0.0 0.0 0.00 0.02 0.00 92 1013.7
20260506001518 55 0.0 0.0 0.00 0.02 0.00 92 1013.6
20260506000527 55 0.0 0.0 0.00 0.02 0.00 92 1013.8
20260505235524 55 0.0 0.0 0.00 0.02 0.00 92 1013.7
20260505234516 56 0.0 0.0 0.00 0.02 0.00 92 1013.7
20260505233525 56 16 0.0 1.7 0.00 0.02 0.00 92 1013.8
20260505232516 56 16 0.9 2.6 0.00 0.02 0.00 92 1013.8
20260505231522 56 13 0.9 2.6 0.00 0.02 0.00 92 1014.0
20260505230519 56 35 0.0 0.9 0.00 0.02 0.00 92 1014.1
20260505225518 56 17 0.0 1.7 0.00 0.02 0.00 92 1014.2
20260505224524 56 16 0.9 1.7 0.00 0.02 0.00 92 1014.3
20260505223525 56 0.0 0.0 0.00 0.02 0.00 91 1014.5
20260505222516 56 9 0.0 2.6 0.00 0.02 0.00 91 1014.5
20260505221523 57 15 0.9 1.7 0.00 0.02 0.00 91 1014.6
20260505220519 57 14 0.9 2.6 0.00 0.02 0.02 91 1014.6